| time (UTC) | temp F | wind direction | speed MPH | gust MPH | rain 1hr in | rain 24hr in | rain mn in | humidity % | barometer mb |
| 20260502164230 | 65 | 324 | 3.0 | 8.0 | 0.00 | 0.13 | 0.13 | 64 | 1012.5 |
| 20260502163230 | 65 | 9 | 6.0 | 8.0 | 0.00 | 0.13 | 0.13 | 65 | 1012.6 |
| 20260502162230 | 63 | 30 | 0.0 | 8.0 | 0.00 | 0.13 | 0.13 | 68 | 1012.6 |
| 20260502161230 | 63 | 291 | 4.0 | 9.0 | 0.00 | 0.13 | 0.13 | 72 | 1012.8 |
| 20260502151230 | 59 | 346 | 3.0 | 7.0 | 0.00 | 0.13 | 0.13 | 80 | 1012.4 |
| 20260502130229 | 56 | 340 | 2.0 | 3.0 | 0.01 | 0.13 | 0.13 | 91 | 1012.2 |
| 20260502123229 | 56 | 287 | 4.0 | 4.0 | 0.00 | 0.12 | 0.12 | 92 | 1012.4 |
| 20260502122228 | 56 | 292 | 0.0 | 2.0 | 0.00 | 0.12 | 0.12 | 92 | 1011.3 |
| 20260502121229 | 56 | 24 | 1.0 | 2.0 | 0.00 | 0.12 | 0.12 | 92 | 1011.0 |
| 20260502120229 | 56 | 311 | 2.0 | 6.0 | 0.00 | 0.12 | 0.12 | 92 | 1011.8 |
| 20260502115228 | 56 | 292 | 4.0 | 7.0 | 0.01 | 0.12 | 0.12 | 94 | 1012.5 |
| 20260502114228 | 56 | 309 | 1.0 | 4.0 | 0.01 | 0.12 | 0.12 | 94 | 1011.3 |
| 20260502111228 | 56 | 324 | 3.0 | 4.0 | 0.01 | 0.12 | 0.12 | 95 | 1011.4 |
| 20260502110228 | 56 | 294 | 1.0 | 6.0 | 0.01 | 0.12 | 0.12 | 95 | 1011.9 |
| 20260502105228 | 56 | 281 | 4.0 | 8.0 | 0.00 | 0.11 | 0.11 | 95 | 1012.5 |
| 20260502103228 | 56 | 243 | 4.0 | 6.0 | 0.00 | 0.11 | 0.11 | 95 | 1012.2 |
| 20260502102227 | 56 | 240 | 3.0 | 3.0 | 0.00 | 0.11 | 0.11 | 95 | 1011.5 |
| 20260502100228 | 56 | 219 | 1.0 | 4.0 | 0.01 | 0.11 | 0.11 | 95 | 1011.0 |
| 20260502090227 | 57 | 269 | 2.0 | 2.0 | 0.02 | 0.10 | 0.10 | 95 | 1011.1 |
| 20260502071226 | 57 | 279 | 0.0 | 2.0 | 0.05 | 0.07 | 0.07 | 94 | 1011.5 |
| 20260502070226 | 57 | 279 | 0.0 | 2.0 | 0.05 | 0.06 | 0.06 | 93 | 1012.0 |
| 20260502065226 | 57 | 279 | 0.0 | 3.0 | 0.05 | 0.05 | 0.05 | 93 | 1012.2 |
| 20260502064226 | 57 | 234 | 1.0 | 3.0 | 0.04 | 0.04 | 0.04 | 93 | 1012.2 |
| 20260502063226 | 57 | 200 | 2.0 | 4.0 | 0.03 | 0.03 | 0.03 | 93 | 1012.4 |
| 20260502062226 | 58 | 235 | 2.0 | 4.0 | 0.03 | 0.03 | 0.03 | 92 | 1012.5 |
| 20260502061226 | 58 | 250 | 3.0 | 4.0 | 0.02 | 0.02 | 0.02 | 92 | 1012.5 |
| 20260502060226 | 58 | 242 | 4.0 | 4.0 | 0.01 | 0.01 | 0.01 | 92 | 1012.5 |
| 20260502055226 | 58 | 241 | 1.0 | 4.0 | 0.00 | 0.00 | 0.00 | 91 | 1012.3 |
| 20260502054225 | 58 | 265 | 1.0 | 2.0 | 0.00 | 0.00 | 0.00 | 91 | 1012.2 |
| 20260502053226 | 58 | 246 | 2.0 | 3.0 | 0.00 | 0.00 | 0.00 | 91 | 1012.6 |
| 20260502051225 | 58 | 234 | 0.0 | 2.0 | 0.00 | 0.00 | 0.00 | 90 | 1012.4 |
| 20260502050225 | 58 | 216 | 1.0 | 2.0 | 0.00 | 0.00 | 0.00 | 91 | 1012.4 |
| 20260502045225 | 58 | 239 | 1.0 | 1.0 | 0.00 | 0.00 | 0.00 | 91 | 1012.6 |
| 20260502044225 | 57 | 239 | 0.0 | 0.0 | 0.00 | 0.00 | 0.00 | 92 | 1012.5 |
| 20260502043225 | 57 | 239 | 1.0 | 2.0 | 0.00 | 0.00 | 0.00 | 90 | 1012.5 |
| 20260502042225 | 58 | 238 | 0.0 | 1.0 | 0.00 | 0.00 | 0.00 | 89 | 1012.7 |
| 20260502041225 | 58 | 249 | 1.0 | 2.0 | 0.00 | 0.00 | 0.00 | 87 | 1012.9 |
| 20260502040225 | 58 | 250 | 1.0 | 2.0 | 0.00 | 0.00 | 0.00 | 86 | 1013.1 |
| 20260502035225 | 58 | 242 | 1.0 | 3.0 | 0.00 | 0.00 | 0.00 | 86 | 1013.1 |
| 20260502034224 | 59 | 253 | 3.0 | 4.0 | 0.00 | 0.00 | 0.00 | 85 | 1013.3 |
| 20260502032224 | 59 | 242 | 3.0 | 4.0 | 0.00 | 0.00 | 0.00 | 82 | 1013.3 |
| 20260502031224 | 59 | 259 | 2.0 | 4.0 | 0.00 | 0.00 | 0.00 | 83 | 1013.2 |
| 20260502030225 | 60 | 286 | 2.0 | 3.0 | 0.00 | 0.00 | 0.00 | 81 | 1013.2 |
| 20260502021224 | 60 | 225 | 1.0 | 2.0 | 0.00 | 0.00 | 0.00 | 79 | 1013.3 |
| 20260502020224 | 60 | 254 | 2.0 | 4.0 | 0.00 | 0.00 | 0.00 | 79 | 1013.3 |
| 20260502015224 | 60 | 254 | 2.0 | 3.0 | 0.00 | 0.00 | 0.00 | 80 | 1013.1 |
| 20260502014224 | 59 | 265 | 0.0 | 1.0 | 0.00 | 0.00 | 0.00 | 83 | 1012.8 |
| 20260502013223 | 59 | 265 | 1.0 | 1.0 | 0.00 | 0.00 | 0.00 | 84 | 1012.5 |
| 20260502012224 | 59 | 265 | 0.0 | 0.0 | 0.00 | 0.00 | 0.00 | 84 | 1012.4 |
| 20260502011224 | 59 | 265 | 0.0 | 0.0 | 0.00 | 0.00 | 0.00 | 83 | 1012.3 |
| 20260502010223 | 59 | 265 | 0.0 | 2.0 | 0.00 | 0.00 | 0.00 | 83 | 1012.0 |
| 20260502005223 | 60 | 265 | 0.0 | 0.0 | 0.00 | 0.00 | 0.00 | 82 | 1012.2 |
| 20260502004223 | 60 | 265 | 0.0 | 1.0 | 0.00 | 0.00 | 0.00 | 80 | 1012.1 |
| 20260502003223 | 60 | 265 | 0.0 | 2.0 | 0.00 | 0.00 | 0.00 | 78 | 1011.9 |
| 20260502002223 | 61 | 265 | 0.0 | 1.0 | 0.00 | 0.00 | 0.00 | 78 | 1012.0 |
| 20260502001223 | 61 | 265 | 1.0 | 1.0 | 0.00 | 0.00 | 0.00 | 78 | 1012.0 |
| 20260501235223 | 62 | 265 | 0.0 | 1.0 | 0.00 | 0.00 | 0.00 | 75 | 1011.8 |
| 20260501234223 | 62 | 274 | 2.0 | 2.0 | 0.00 | 0.00 | 0.00 | 72 | 1011.8 |
| 20260501233223 | 62 | 266 | 1.0 | 2.0 | 0.00 | 0.00 | 0.00 | 71 | 1011.7 |
| 20260501232223 | 63 | 239 | 1.0 | 3.0 | 0.00 | 0.00 | 0.00 | 70 | 1011.9 |
| 20260501231223 | 63 | 265 | 2.0 | 3.0 | 0.00 | 0.00 | 0.00 | 67 | 1011.9 |
| 20260501230223 | 63 | 239 | 1.0 | 2.0 | 0.00 | 0.00 | 0.00 | 66 | 1011.9 |
| 20260501224222 | 63 | 271 | 1.0 | 2.0 | 0.00 | 0.00 | 0.00 | 63 | 1012.0 |
| 20260501223222 | 63 | 279 | 1.0 | 2.0 | 0.00 | 0.00 | 0.00 | 63 | 1011.6 |
| 20260501222222 | 64 | 335 | 1.0 | 3.0 | 0.00 | 0.00 | 0.00 | 63 | 1011.5 |
| 20260501221222 | 64 | 311 | 1.0 | 3.0 | 0.00 | 0.00 | 0.00 | 61 | 1011.3 |
| 20260501220222 | 64 | 9 | 1.0 | 2.0 | 0.00 | 0.00 | 0.00 | 61 | 1011.5 |
| 20260501215224 | 64 | 360 | 1.0 | 2.0 | 0.00 | 0.00 | 0.00 | 62 | 1011.7 |
| 20260501214221 | 63 | 299 | 0.0 | 2.0 | 0.00 | 0.00 | 0.00 | 63 | 1012.0 |
| 20260501213222 | 63 | 309 | 3.0 | 4.0 | 0.00 | 0.00 | 0.00 | 62 | 1012.1 |
| 20260501212222 | 64 | 336 | 1.0 | 4.0 | 0.00 | 0.00 | 0.00 | 60 | 1011.9 |
| 20260501211222 | 64 | 15 | 1.0 | 3.0 | 0.00 | 0.00 | 0.00 | 64 | 1012.2 |
| 20260501210222 | 63 | 9 | 2.0 | 3.0 | 0.00 | 0.00 | 0.00 | 66 | 1012.3 |
| 20260501205222 | 63 | 17 | 1.0 | 2.0 | 0.00 | 0.00 | 0.00 | 67 | 1012.7 |
| 20260501204222 | 63 | 336 | 2.0 | 3.0 | 0.00 | 0.00 | 0.00 | 69 | 1012.8 |
| 20260501203222 | 63 | 17 | 3.0 | 3.0 | 0.00 | 0.00 | 0.00 | 66 | 1012.8 |
| 20260501202221 | 63 | 346 | 2.0 | 4.0 | 0.00 | 0.00 | 0.00 | 67 | 1013.0 |
| 20260501201221 | 63 | 5 | 1.0 | 4.0 | 0.00 | 0.00 | 0.00 | 64 | 1013.0 |
| 20260501200221 | 63 | 66 | 1.0 | 4.0 | 0.00 | 0.00 | 0.00 | 66 | 1012.9 |
| 20260501195221 | 63 | 57 | 1.0 | 2.0 | 0.00 | 0.00 | 0.00 | 66 | 1013.1 |
| 20260501194221 | 63 | 63 | 2.0 | 2.0 | 0.00 | 0.00 | 0.00 | 64 | 1013.3 |
| 20260501193221 | 63 | 32 | 1.0 | 3.0 | 0.00 | 0.00 | 0.00 | 65 | 1013.3 |
| 20260501192221 | 63 | 114 | 2.0 | 4.0 | 0.00 | 0.00 | 0.00 | 66 | 1013.2 |
| 20260501191221 | 63 | 76 | 3.0 | 4.0 | 0.00 | 0.00 | 0.00 | 65 | 1013.1 |
| 20260501190220 | 63 | 76 | 2.0 | 5.0 | 0.00 | 0.00 | 0.00 | 66 | 1013.1 |
| 20260501185221 | 64 | 53 | 2.0 | 4.0 | 0.00 | 0.00 | 0.00 | 64 | 1013.3 |
| 20260501184221 | 63 | 52 | 3.0 | 4.0 | 0.00 | 0.00 | 0.00 | 64 | 1013.2 |
| 20260501183220 | 63 | 78 | 3.0 | 4.0 | 0.00 | 0.00 | 0.00 | 64 | 1013.1 |
| 20260501182221 | 63 | 86 | 1.0 | 3.0 | 0.00 | 0.00 | 0.00 | 64 | 1013.4 |
| 20260501181221 | 63 | 67 | 0.0 | 2.0 | 0.00 | 0.00 | 0.00 | 61 | 1013.6 |
| 20260501180221 | 63 | 84 | 3.0 | 4.0 | 0.00 | 0.00 | 0.00 | 61 | 1013.6 |
| 20260501175220 | 63 | 58 | 2.0 | 4.0 | 0.00 | 0.00 | 0.00 | 60 | 1013.6 |
| 20260501174220 | 63 | 32 | 2.0 | 4.0 | 0.00 | 0.00 | 0.00 | 60 | 1013.7 |
| 20260501173220 | 63 | 132 | 2.0 | 4.0 | 0.00 | 0.00 | 0.00 | 61 | 1013.7 |
| 20260501172221 | 64 | 95 | 1.0 | 6.0 | 0.00 | 0.00 | 0.00 | 63 | 1013.6 |
| 20260501171220 | 63 | 94 | 2.0 | 5.0 | 0.00 | 0.00 | 0.00 | 60 | 1013.7 |